User: anonymous   Login
Location: Vlissingen
(51.4500°N, 3.5830°E)
Time: 14:24:28
(UTC+02:00)
Language:

Hubble Space Telescope - Orbit

View from above orbital plane
View from above orbital plane
View from above satellite
View from above satellite

Ground track
Ground track

The orbit data is extracted from the following two-line orbital elements,

1 20580U 90037B   24169.84347884  .00006360  00000-0  29693-3 0  9999
2 20580  28.4700 340.7349 0003035  47.0995 312.9852 15.17768109677132
Epoch (UTC): 17 June 2024 20:14:36
Eccentricity: 0.0003035
inclination: 28.4700°
perigee height: 510 km
apogee height: 514 km
right ascension of ascending node: 340.7349°
argument of perigee: 47.0995°
revolutions per day: 15.17768109
mean anomaly at epoch: 312.9852°
orbit number at epoch: 67713

The dashed part of the orbit path shows where the satellite is in the earth's shadow,  

DLR